�������l�o���
Date,Time,MP-1(��Sv/h),MP-2(��Sv/h),MP-3(��Sv/h),MP-4(��Sv/h),MP-5(��Sv/h),MP-6(��Sv/h),MP-7(��Sv/h),MP-8(��Sv/h),����,����(m/s),���J
2023/05/19,00:00,0.572,0.837,0.503,1.017,0.738,0.331,0.583,0.547,��,5.5,��
2023/05/19,00:10,0.574,0.834,0.504,1.016,0.737,0.330,0.583,0.548,��,5.6,��
2023/05/19,00:20,0.573,0.834,0.502,1.015,0.739,0.331,0.584,0.548,��쓌,4.0,��
2023/05/19,00:30,0.571,0.834,0.503,1.017,0.737,0.331,0.584,0.546,��,4.6,��
2023/05/19,00:40,0.573,0.834,0.504,1.017,0.739,0.329,0.584,0.548,��,4.1,��
2023/05/19,00:50,0.572,0.837,0.504,1.016,0.739,0.330,0.585,0.548,��,4.2,��
2023/05/19,01:00,0.573,0.834,0.505,1.015,0.738,0.330,0.584,0.546,��쐼,2.6,��
2023/05/19,01:10,0.571,0.836,0.503,1.015,0.738,0.331,0.584,0.548,�k�k��,2.2,��
2023/05/19,01:20,0.573,0.836,0.505,1.016,0.739,0.332,0.585,0.548,�k��,3.1,��
2023/05/19,01:30,0.573,0.836,0.504,1.016,0.740,0.331,0.586,0.548,�k�k��,3.9,��
2023/05/19,01:40,0.573,0.838,0.504,1.018,0.738,0.331,0.587,0.546,�k,3.8,��
2023/05/19,01:50,0.573,0.837,0.504,1.017,0.737,0.331,0.585,0.547,�k,6.3,��
2023/05/19,02:00,0.574,0.837,0.504,1.017,0.740,0.331,0.584,0.546,�k,5.5,��
2023/05/19,02:10,0.573,0.836,0.503,1.015,0.739,0.332,0.585,0.547,�k,2.5,��
2023/05/19,02:20,0.572,0.836,0.502,1.017,0.738,0.329,0.584,0.547,�k�k��,4.9,��
2023/05/19,02:30,0.572,0.833,0.502,1.016,0.737,0.331,0.584,0.548,�k�k��,5.8,��
2023/05/19,02:40,0.572,0.835,0.503,1.014,0.738,0.329,0.586,0.546,�k,7.5,��
2023/05/19,02:50,0.571,0.835,0.502,1.015,0.737,0.330,0.585,0.547,�k,8.1,��
2023/05/19,03:00,0.570,0.834,0.503,1.016,0.738,0.329,0.584,0.547,�k,8.2,��
2023/05/19,03:10,0.572,0.833,0.503,1.016,0.737,0.330,0.584,0.546,�k,6.7,��
2023/05/19,03:20,0.571,0.833,0.503,1.012,0.737,0.329,0.586,0.548,�k,7.0,��
2023/05/19,03:30,0.573,0.836,0.504,1.016,0.737,0.330,0.585,0.546,�k�k��,6.9,��
2023/05/19,03:40,0.573,0.834,0.503,1.017,0.738,0.330,0.585,0.547,�k�k��,6.8,��
2023/05/19,03:50,0.574,0.835,0.503,1.018,0.740,0.330,0.585,0.548,�k�k��,6.7,��
2023/05/19,04:00,0.572,0.833,0.505,1.016,0.738,0.328,0.586,0.549,�k�k��,4.8,��
2023/05/19,04:10,0.572,0.837,0.505,1.013,0.736,0.328,0.584,0.547,�k�k��,5.0,��
2023/05/19,04:20,0.571,0.833,0.503,1.017,0.738,0.329,0.584,0.547,�k�k��,3.2,��
2023/05/19,04:30,0.572,0.835,0.504,1.017,0.738,0.329,0.583,0.548,�k��,1.7,��
2023/05/19,04:40,0.574,0.835,0.503,1.017,0.740,0.331,0.586,0.547,���k��,2.6,��
2023/05/19,04:50,0.571,0.836,0.502,1.016,0.738,0.329,0.585,0.547,���k��,3.0,��
2023/05/19,05:00,0.572,0.836,0.504,1.016,0.738,0.330,0.586,0.548,���k��,3.2,��
2023/05/19,05:10,0.572,0.836,0.503,1.017,0.738,0.329,0.587,0.546,��,2.0,��
2023/05/19,05:20,0.572,0.835,0.503,1.017,0.737,0.329,0.588,0.549,��,2.0,��
2023/05/19,05:30,0.575,0.837,0.503,1.016,0.739,0.330,0.587,0.548,���쐼,2.3,��
2023/05/19,05:40,0.573,0.836,0.504,1.017,0.738,0.331,0.586,0.547,�k��,2.6,��
2023/05/19,05:50,0.575,0.834,0.504,1.019,0.738,0.330,0.587,0.548,���k��,2.0,��
2023/05/19,06:00,0.573,0.834,0.503,1.017,0.738,0.328,0.585,0.547,���k��,1.7,��
2023/05/19,06:10,0.571,0.835,0.504,1.016,0.740,0.331,0.586,0.548,�쐼,1.2,��
2023/05/19,06:20,0.573,0.835,0.504,1.015,0.737,0.330,0.585,0.548,��,2.6,��
2023/05/19,06:30,0.574,0.836,0.503,1.017,0.737,0.329,0.586,0.547,��쓌,3.9,��
2023/05/19,06:40,0.573,0.837,0.503,1.018,0.738,0.330,0.586,0.547,��,4.6,��
2023/05/19,06:50,0.574,0.836,0.503,1.018,0.738,0.329,0.585,0.548,��,3.2,��
2023/05/19,07:00,0.572,0.836,0.503,1.017,0.737,0.328,0.584,0.548,��,3.7,��
2023/05/19,07:10,0.573,0.837,0.504,1.019,0.740,0.330,0.585,0.549,��,4.5,��
2023/05/19,07:20,0.570,0.833,0.505,1.017,0.739,0.328,0.584,0.547,��,4.3,��
2023/05/19,07:30,0.572,0.834,0.504,1.015,0.737,0.328,0.583,0.546,��,4.5,��
2023/05/19,07:40,0.570,0.834,0.503,1.017,0.737,0.329,0.585,0.546,��,5.6,��
2023/05/19,07:50,0.570,0.833,0.503,1.018,0.739,0.328,0.585,0.546,��,4.4,��
2023/05/19,08:00,0.571,0.833,0.503,1.017,0.735,0.328,0.584,0.544,��쐼,5.9,��
2023/05/19,08:10,0.572,0.833,0.501,1.016,0.737,0.328,0.584,0.546,�쐼,5.2,��
2023/05/19,08:20,0.571,0.834,0.503,1.016,0.737,0.329,0.583,0.545,��,3.7,��
2023/05/19,08:30,0.570,0.833,0.503,1.017,0.737,0.329,0.584,0.544,�k�k��,3.9,��
2023/05/19,08:40,0.565,0.833,0.501,1.018,0.737,0.328,0.582,0.545,�k,7.3,�L
2023/05/19,08:50,0.564,0.832,0.504,1.019,0.736,0.328,0.583,0.544,�k�k��,9.2,�L
2023/05/19,09:00,0.565,0.833,0.501,1.017,0.736,0.328,0.584,0.541,�k�k��,10.7,��
2023/05/19,09:10,0.564,0.834,0.500,1.019,0.734,0.327,0.585,0.542,�k,10.8,��
2023/05/19,09:20,0.565,0.832,0.499,1.017,0.733,0.326,0.582,0.543,�k,10.5,��
2023/05/19,09:30,0.566,0.830,0.499,1.017,0.733,0.327,0.582,0.542,�k�k��,8.0,��
2023/05/19,09:40,0.563,0.832,0.499,1.016,0.735,0.326,0.581,0.541,�k,7.2,��
2023/05/19,09:50,0.566,0.831,0.499,1.015,0.734,0.328,0.583,0.544,�k,7.4,��
2023/05/19,10:00,0.564,0.828,0.508,1.016,0.736,0.326,0.582,0.546,�k�k��,6.6,��
2023/05/19,10:10,0.565,0.831,0.500,1.017,0.736,0.327,0.580,0.544,�k,4.6,��
2023/05/19,10:20,0.566,0.833,0.497,1.015,0.735,0.328,0.579,0.546,�k,3.0,��
2023/05/19,10:30,0.565,0.830,0.498,1.016,0.733,0.325,0.582,0.545,���k��,3.2,��
2023/05/19,10:40,0.564,0.829,0.499,1.015,0.734,0.327,0.581,0.545,���쓌,5.1,��
2023/05/19,10:50,0.565,0.831,0.500,1.014,0.732,0.326,0.581,0.545,���쓌,3.9,��
2023/05/19,11:00,0.564,0.830,0.498,1.015,0.735,0.327,0.579,0.545,���쓌,3.8,��
2023/05/19,11:10,0.564,0.831,0.499,1.015,0.735,0.326,0.580,0.545,���k��,4.4,��
2023/05/19,11:20,0.571,0.833,0.503,1.013,0.734,0.325,0.579,0.544,���k��,4.1,��
2023/05/19,11:30,0.570,0.831,0.499,1.015,0.736,0.327,0.580,0.547,�k��,3.1,��
2023/05/19,11:40,0.570,0.832,0.500,1.015,0.737,0.327,0.579,0.545,�k��,2.5,��
2023/05/19,11:50,0.568,0.830,0.498,1.014,0.737,0.327,0.579,0.544,�k�k��,2.2,��
2023/05/19,12:00,0.569,0.831,0.499,1.015,0.735,0.327,0.580,0.545,�k�k��,2.3,��
2023/05/19,12:10,0.570,0.833,0.498,1.013,0.734,0.325,0.581,0.543,�k,2.8,��
2023/05/19,12:20,0.569,0.833,0.497,1.013,0.735,0.327,0.580,0.544,�k�k��,3.4,��
2023/05/19,12:30,0.568,0.833,0.500,1.016,0.735,0.328,0.580,0.544,�k�k��,3.0,��
2023/05/19,12:40,0.570,0.832,0.499,1.016,0.737,0.327,0.581,0.544,�k�k��,2.6,��
2023/05/19,12:50,0.569,0.831,0.498,1.017,0.736,0.326,0.580,0.543,���쓌,1.1,��
2023/05/19,13:00,0.569,0.829,0.501,1.015,0.735,0.326,0.580,0.546,��쓌,1.9,��
2023/05/19,13:10,0.569,0.834,0.499,1.015,0.734,0.326,0.581,0.543,�쓌,0.6,��
2023/05/19,13:20,0.571,0.832,0.499,1.017,0.736,0.326,0.580,0.546,�k�k��,1.2,��
2023/05/19,13:30,0.570,0.831,0.498,1.016,0.736,0.327,0.581,0.544,��,1.2,��
2023/05/19,13:40,0.571,0.831,0.499,1.016,0.736,0.325,0.581,0.544,�k�k��,1.9,��
2023/05/19,13:50,0.570,0.832,0.499,1.017,0.734,0.328,0.581,0.544,�k�k��,1.5,��
2023/05/19,14:00,0.568,0.834,0.500,1.015,0.736,0.328,0.581,0.545,�k�k��,1.7,��
2023/05/19,14:10,0.569,0.832,0.500,1.018,0.735,0.326,0.583,0.545,�k,3.0,�L
2023/05/19,14:20,0.569,0.833,0.500,1.018,0.737,0.326,0.581,0.544,�k�k��,3.3,�L
2023/05/19,14:30,0.568,0.831,0.501,1.016,0.736,0.325,0.580,0.545,�k�k��,4.0,�L
2023/05/19,14:40,0.568,0.831,0.502,1.018,0.737,0.328,0.583,0.546,�k,2.9,�L
2023/05/19,14:50,0.569,0.831,0.501,1.018,0.735,0.328,0.581,0.544,�k�k��,3.7,�L
2023/05/19,15:00,0.570,0.831,0.500,1.018,0.737,0.327,0.581,0.545,��쓌,4.0,�L
2023/05/19,15:10,0.567,0.828,0.495,1.017,0.732,0.327,0.579,0.544,�k,0.9,�L
2023/05/19,15:20,0.565,0.823,0.496,1.014,0.729,0.326,0.579,0.543,�k��,1.9,�L
2023/05/19,15:30,0.565,0.820,0.497,1.015,0.728,0.326,0.580,0.542,�k��,3.0,�L
2023/05/19,15:40,0.564,0.820,0.496,1.011,0.726,0.328,0.579,0.543,�k�k��,3.9,�L
2023/05/19,15:50,0.564,0.819,0.495,1.012,0.725,0.327,0.579,0.543,�k�k��,3.8,�L
2023/05/19,16:00,0.562,0.818,0.496,1.011,0.722,0.326,0.577,0.543,�k�k��,3.6,�L
2023/05/19,16:10,0.562,0.815,0.495,1.008,0.721,0.326,0.578,0.543,�k,2.9,�L
2023/05/19,16:20,0.559,0.810,0.493,1.005,0.718,0.325,0.575,0.541,�k�k��,3.5,�L
2023/05/19,16:30,0.558,0.809,0.491,1.002,0.714,0.324,0.576,0.538,���k��,4.6,�L
2023/05/19,16:40,0.556,0.804,0.491,0.999,0.713,0.324,0.572,0.539,�k��,2.6,�L
2023/05/19,16:50,0.554,0.804,0.489,0.994,0.707,0.323,0.572,0.537,�k�k��,3.3,�L
2023/05/19,17:00,0.550,0.799,0.488,0.991,0.705,0.323,0.571,0.537,-,CALM,�L
2023/05/19,17:10,0.551,0.798,0.488,0.990,0.704,0.323,0.572,0.538,�k�k��,2.0,�L
2023/05/19,17:20,0.549,0.795,0.485,0.985,0.704,0.322,0.572,0.537,�k,2.0,�L
2023/05/19,17:30,0.549,0.793,0.486,0.981,0.703,0.321,0.571,0.538,�k�k��,3.6,�L
2023/05/19,17:40,0.546,0.794,0.484,0.981,0.701,0.322,0.570,0.535,�k�k��,3.8,�L
2023/05/19,17:50,0.548,0.794,0.485,0.981,0.701,0.321,0.570,0.536,�k�k��,2.6,�L
2023/05/19,18:00,0.549,0.794,0.485,0.980,0.704,0.320,0.569,0.535,�k�k��,1.9,�L
2023/05/19,18:10,0.549,0.793,0.486,0.981,0.703,0.321,0.569,0.535,�k�k��,0.9,�L
2023/05/19,18:20,0.549,0.794,0.486,0.978,0.702,0.321,0.568,0.536,�k�k��,2.5,�L
2023/05/19,18:30,0.548,0.792,0.486,0.977,0.701,0.323,0.569,0.534,�k�k��,2.5,�L
2023/05/19,18:40,0.548,0.790,0.486,0.977,0.698,0.321,0.569,0.535,�k,3.5,�L
2023/05/19,18:50,0.545,0.788,0.486,0.970,0.697,0.322,0.569,0.535,�k,3.5,�L
2023/05/19,19:00,0.545,0.789,0.487,0.968,0.696,0.322,0.566,0.534,�k�k��,3.6,�L
2023/05/19,19:10,0.544,0.786,0.485,0.967,0.697,0.321,0.566,0.534,�k�k��,3.7,�L
2023/05/19,19:20,0.544,0.787,0.483,0.965,0.694,0.320,0.566,0.532,�k�k��,3.1,�L
2023/05/19,19:30,0.544,0.783,0.484,0.965,0.693,0.321,0.566,0.533,�k��,2.3,�L
2023/05/19,19:40,0.543,0.787,0.483,0.964,0.695,0.319,0.567,0.534,�k��,2.2,�L
2023/05/19,19:50,0.544,0.788,0.483,0.963,0.694,0.321,0.567,0.533,�k�k��,2.5,�L
2023/05/19,20:00,0.543,0.787,0.485,0.963,0.692,0.319,0.566,0.533,�k�k��,2.5,�L
2023/05/19,20:10,0.544,0.786,0.483,0.964,0.693,0.319,0.566,0.533,�k�k��,2.8,�L
2023/05/19,20:20,0.543,0.788,0.483,0.963,0.696,0.318,0.566,0.533,�k�k��,3.0,�L
2023/05/19,20:30,0.544,0.790,0.482,0.964,0.694,0.319,0.566,0.531,�k�k��,3.6,�L
2023/05/19,20:40,0.543,0.787,0.482,0.964,0.695,0.318,0.566,0.534,�k�k��,3.7,�L
2023/05/19,20:50,0.543,0.790,0.484,0.965,0.693,0.319,0.568,0.534,�k�k��,3.7,�L
2023/05/19,21:00,0.544,0.787,0.482,0.964,0.695,0.319,0.565,0.534,�k�k��,3.9,�L
2023/05/19,21:10,0.543,0.787,0.483,0.965,0.694,0.319,0.567,0.534,�k�k��,4.3,�L
2023/05/19,21:20,0.543,0.785,0.484,0.963,0.693,0.320,0.567,0.534,�k�k��,4.3,�L
2023/05/19,21:30,0.545,0.783,0.481,0.961,0.692,0.318,0.565,0.532,�k�k��,4.7,�L
2023/05/19,21:40,0.542,0.781,0.482,0.960,0.689,0.319,0.563,0.533,�k�k��,3.6,�L
2023/05/19,21:50,0.541,0.780,0.481,0.953,0.687,0.319,0.562,0.530,�k,3.5,�L
2023/05/19,22:00,0.537,0.776,0.481,0.951,0.682,0.318,0.561,0.530,�k��,3.2,�L
2023/05/19,22:10,0.539,0.775,0.482,0.948,0.681,0.317,0.563,0.529,���k��,3.4,�L
2023/05/19,22:20,0.538,0.774,0.482,0.950,0.683,0.318,0.562,0.530,�k��,3.7,�L
2023/05/19,22:30,0.539,0.778,0.482,0.952,0.685,0.320,0.561,0.532,�k��,4.2,�L
2023/05/19,22:40,0.539,0.776,0.480,0.953,0.684,0.320,0.563,0.531,�k�k��,5.0,�L
2023/05/19,22:50,0.539,0.777,0.480,0.953,0.684,0.320,0.564,0.530,�k�k��,5.4,�L
2023/05/19,23:00,0.540,0.780,0.480,0.953,0.685,0.319,0.563,0.530,�k�k��,6.1,�L
2023/05/19,23:10,0.539,0.778,0.479,0.954,0.687,0.319,0.563,0.531,�k�k��,4.9,��
2023/05/19,23:20,0.540,0.778,0.479,0.951,0.686,0.319,0.563,0.533,�k��,2.9,��
2023/05/19,23:30,0.539,0.781,0.481,0.952,0.686,0.317,0.563,0.531,�k��,2.9,�L
2023/05/19,23:40,0.541,0.778,0.479,0.952,0.686,0.318,0.566,0.532,�k��,2.6,��
2023/05/19,23:50,0.540,0.781,0.481,0.949,0.686,0.318,0.564,0.533,�k��,3.2,��
